Time,TemperatureF,DewpointF,PressureIn,WindDirection,WindDirectionDegrees,WindSpeedMPH,WindSpeedGustMPH,Humidity,HourlyPrecipIn,Conditions,Clouds,dailyrainin,SoftwareType,DateUTC
2013-06-05 00:01:00,62.2,47.3,29.94,SSE,150,0.0,0.0,58,0.00,BKN,,0.00,WeatherDisplay:10.37,2013-06-05 04:01:00,
2013-06-05 00:02:00,62.2,47.3,29.94,SSE,150,0.0,0.0,58,0.00,BKN,,0.00,WeatherDisplay:10.37,2013-06-05 04:02:00,
2013-06-05 00:07:00,62.1,47.1,29.94,SSE,150,0.0,0.0,58,0.00,BKN,,0.00,WeatherDisplay:10.37,2013-06-05 04:07:00,
2013-06-05 00:12:00,62.2,47.7,29.94,SSE,150,0.0,0.0,59,0.00,BKN,,0.00,WeatherDisplay:10.37,2013-06-05 04:12:00,
2013-06-05 00:17:00,62.2,47.7,29.93,SSE,150,0.0,0.0,59,0.00,BKN,,0.00,WeatherDisplay:10.37,2013-06-05 04:17:00,
2013-06-05 00:22:00,62.2,47.3,29.94,SSE,150,0.0,0.0,58,0.00,OVC,,0.00,WeatherDisplay:10.37,2013-06-05 04:22:00,
2013-06-05 00:27:00,62.4,47.9,29.94,SSE,150,0.0,0.0,59,0.00,OVC,,0.00,WeatherDisplay:10.37,2013-06-05 04:27:00,
2013-06-05 00:32:00,61.9,47.8,29.94,SSE,150,0.0,0.0,60,0.00,OVC,,0.00,WeatherDisplay:10.37,2013-06-05 04:32:00,
2013-06-05 00:37:00,61.5,47.9,29.94,SSE,150,0.0,0.0,61,0.00,OVC,,0.00,WeatherDisplay:10.37,2013-06-05 04:37:00,
2013-06-05 00:42:00,61.3,47.8,29.93,SSE,150,0.0,0.0,61,0.00,OVC,,0.00,WeatherDisplay:10.37,2013-06-05 04:42:00,
2013-06-05 00:47:00,61.2,47.6,29.93,SSE,150,0.0,0.0,61,0.00,OVC,,0.00,WeatherDisplay:10.37,2013-06-05 04:47:00,
2013-06-05 00:52:00,61.2,47.6,29.93,SSE,150,0.0,0.0,61,0.00,OVC,,0.00,WeatherDisplay:10.37,2013-06-05 04:52:00,
2013-06-05 00:57:00,61.2,47.6,29.93,SSE,150,0.0,0.0,61,0.00,OVC,,0.00,WeatherDisplay:10.37,2013-06-05 04:57:00,
2013-06-05 01:02:00,61.0,47.4,29.93,SSE,150,0.0,0.0,61,0.00,OVC,,0.00,WeatherDisplay:10.37,2013-06-05 05:02:00,
2013-06-05 01:07:00,60.6,47.5,29.93,SSE,150,0.0,0.0,62,0.00,OVC,,0.00,WeatherDisplay:10.37,2013-06-05 05:07:00,
2013-06-05 01:12:00,60.4,47.4,29.93,SSE,150,0.0,0.0,62,0.00,OVC,,0.00,WeatherDisplay:10.37,2013-06-05 05:12:00,
2013-06-05 01:17:00,60.4,47.8,29.93,SSE,150,0.0,0.0,63,0.00,OVC,,0.00,WeatherDisplay:10.37,2013-06-05 05:17:00,
2013-06-05 01:22:00,60.4,47.8,29.92,SSE,150,0.0,0.0,63,0.00,OVC,,0.00,WeatherDisplay:10.37,2013-06-05 05:22:00,
2013-06-05 01:27:00,60.1,47.9,29.93,SSE,150,0.0,0.0,64,0.00,OVC,,0.00,WeatherDisplay:10.37,2013-06-05 05:27:00,
2013-06-05 01:32:00,60.1,47.4,29.93,SSE,150,0.0,0.0,63,0.00,OVC,,0.00,WeatherDisplay:10.37,2013-06-05 05:32:00,
2013-06-05 01:37:00,59.9,47.7,29.92,SSE,150,0.0,0.0,64,0.00,OVC,,0.00,WeatherDisplay:10.37,2013-06-05 05:37:00,
2013-06-05 01:42:00,59.7,47.5,29.92,SSE,150,0.0,0.0,64,0.00,OVC,,0.00,WeatherDisplay:10.37,2013-06-05 05:42:00,
2013-06-05 01:47:00,59.7,47.9,29.92,SSE,150,0.0,0.0,65,0.00,OVC,,0.00,WeatherDisplay:10.37,2013-06-05 05:47:00,
2013-06-05 01:52:00,59.5,47.8,29.92,SSE,150,0.0,0.0,65,0.00,OVC,,0.00,WeatherDisplay:10.37,2013-06-05 05:52:00,
2013-06-05 01:57:00,60.1,48.3,29.92,SSE,150,0.0,0.0,65,0.00,OVC,,0.00,WeatherDisplay:10.37,2013-06-05 05:57:00,
2013-06-05 02:02:00,60.1,48.3,29.93,SSE,150,0.0,0.0,65,0.00,OVC,,0.00,WeatherDisplay:10.37,2013-06-05 06:02:00,
2013-06-05 02:07:00,60.4,48.6,29.92,SSE,150,0.0,0.0,65,0.00,OVC,,0.00,WeatherDisplay:10.37,2013-06-05 06:07:00,
2013-06-05 02:12:00,60.3,48.0,29.92,SSE,150,0.0,0.0,64,0.00,OVC,,0.00,WeatherDisplay:10.37,2013-06-05 06:12:00,
2013-06-05 02:17:00,60.1,48.3,29.92,SSE,150,0.0,0.0,65,0.00,OVC,,0.00,WeatherDisplay:10.37,2013-06-05 06:17:00,
2013-06-05 02:22:00,60.1,48.3,29.92,SSE,150,0.0,0.0,65,0.00,OVC,,0.00,WeatherDisplay:10.37,2013-06-05 06:22:00,
2013-06-05 02:27:00,60.1,48.3,29.92,SSE,150,0.0,0.0,65,0.00,OVC,,0.00,WeatherDisplay:10.37,2013-06-05 06:27:00,
2013-06-05 02:32:00,59.7,48.3,29.92,SSE,150,0.0,0.0,66,0.00,OVC,,0.00,WeatherDisplay:10.37,2013-06-05 06:32:00,
2013-06-05 02:37:00,59.5,48.2,29.92,SSE,150,0.0,0.0,66,0.00,OVC,,0.00,WeatherDisplay:10.37,2013-06-05 06:37:00,
2013-06-05 02:42:00,59.7,48.3,29.93,SSE,150,0.0,0.0,66,0.00,OVC,,0.00,WeatherDisplay:10.37,2013-06-05 06:42:00,
2013-06-05 02:47:00,59.9,48.1,29.92,SSE,150,0.0,0.0,65,0.00,OVC,,0.00,WeatherDisplay:10.37,2013-06-05 06:47:00,
2013-06-05 02:52:00,60.1,48.7,29.93,SSE,150,0.0,0.0,66,0.00,OVC,,0.00,WeatherDisplay:10.37,2013-06-05 06:52:00,
2013-06-05 02:57:00,60.1,48.7,29.93,SSE,150,0.0,0.0,66,0.00,OVC,,0.00,WeatherDisplay:10.37,2013-06-05 06:57:00,
2013-06-05 03:02:00,60.3,48.9,29.92,SSE,150,0.0,0.0,66,0.00,OVC,,0.00,WeatherDisplay:10.37,2013-06-05 07:02:00,
2013-06-05 03:07:00,60.4,49.4,29.92,SSE,150,0.0,0.0,67,0.00,OVC,,0.00,WeatherDisplay:10.37,2013-06-05 07:07:00,
2013-06-05 03:12:00,60.4,49.4,29.92,SSE,150,0.0,0.0,67,0.00,OVC,,0.00,WeatherDisplay:10.37,2013-06-05 07:12:00,
2013-06-05 03:17:00,60.4,49.4,29.92,SSE,150,0.0,0.0,67,0.00,OVC,,0.00,WeatherDisplay:10.37,2013-06-05 07:17:00,
2013-06-05 03:22:00,60.4,49.0,29.92,SSE,150,0.0,0.0,66,0.00,OVC,,0.00,WeatherDisplay:10.37,2013-06-05 07:22:00,
2013-06-05 03:27:00,60.4,49.0,29.92,SSE,150,0.0,0.0,66,0.00,OVC,,0.00,WeatherDisplay:10.37,2013-06-05 07:27:00,
2013-06-05 03:32:00,60.4,49.0,29.92,SSE,150,0.0,0.0,66,0.00,OVC,,0.00,WeatherDisplay:10.37,2013-06-05 07:32:00,
2013-06-05 03:37:00,60.4,49.0,29.92,SSE,150,0.0,0.0,66,0.00,OVC,,0.00,WeatherDisplay:10.37,2013-06-05 07:37:00,
2013-06-05 03:42:00,60.6,49.2,29.92,SSE,150,0.0,0.0,66,0.00,OVC,,0.00,WeatherDisplay:10.37,2013-06-05 07:42:00,
2013-06-05 03:47:00,60.6,49.2,29.92,SSE,150,0.0,0.0,66,0.00,OVC,,0.00,WeatherDisplay:10.37,2013-06-05 07:47:00,
2013-06-05 03:52:00,61.0,49.9,29.92,SSE,150,0.0,0.0,67,0.00,OVC,,0.00,WeatherDisplay:10.37,2013-06-05 07:52:00,
2013-06-05 03:57:00,61.2,50.1,29.93,SSE,150,0.0,0.0,67,0.00,OVC,,0.00,WeatherDisplay:10.37,2013-06-05 07:57:00,
2013-06-05 04:02:00,61.2,49.7,29.93,SSE,150,0.0,0.0,66,0.00,OVC,,0.00,WeatherDisplay:10.37,2013-06-05 08:02:00,
2013-06-05 04:07:00,61.3,49.9,29.93,SSE,150,0.0,0.0,66,0.00,OVC,,0.00,WeatherDisplay:10.37,2013-06-05 08:07:00,
2013-06-05 04:12:00,61.2,50.1,29.93,SSE,150,0.0,0.0,67,0.00,OVC,,0.00,WeatherDisplay:10.37,2013-06-05 08:12:00,
2013-06-05 04:17:00,61.3,49.9,29.93,SSE,150,0.0,0.0,66,0.00,OVC,,0.00,WeatherDisplay:10.37,2013-06-05 08:17:00,
2013-06-05 04:22:00,61.2,50.1,29.92,SSE,150,0.0,0.0,67,0.00,OVC,,0.00,WeatherDisplay:10.37,2013-06-05 08:22:00,
2013-06-05 04:27:00,61.3,50.3,29.93,SSE,150,0.0,0.0,67,0.00,OVC,,0.00,WeatherDisplay:10.37,2013-06-05 08:27:00,
2013-06-05 04:32:00,61.3,50.3,29.93,SSE,150,0.0,0.0,67,0.00,OVC,,0.00,WeatherDisplay:10.37,2013-06-05 08:32:00,
2013-06-05 04:37:00,61.2,49.7,29.93,SSE,150,0.0,0.0,66,0.00,OVC,,0.00,WeatherDisplay:10.37,2013-06-05 08:37:00,
2013-06-05 04:42:00,61.3,49.9,29.93,SSE,150,0.0,0.0,66,0.00,OVC,,0.00,WeatherDisplay:10.37,2013-06-05 08:42:00,
2013-06-05 04:47:00,61.3,49.9,29.93,SSE,150,0.0,0.0,66,0.00,OVC,,0.00,WeatherDisplay:10.37,2013-06-05 08:47:00,
2013-06-05 04:52:00,61.2,49.7,29.93,SSE,150,0.0,0.0,66,0.00,OVC,,0.00,WeatherDisplay:10.37,2013-06-05 08:52:00,
2013-06-05 04:57:00,61.0,49.9,29.93,SSE,150,0.0,0.0,67,0.00,OVC,,0.00,WeatherDisplay:10.37,2013-06-05 08:57:00,
2013-06-05 05:02:00,61.0,49.9,29.93,SSE,150,0.0,0.0,67,0.00,OVC,,0.00,WeatherDisplay:10.37,2013-06-05 09:02:00,
2013-06-05 05:07:00,61.0,49.9,29.94,SSE,150,0.0,0.0,67,0.00,OVC,,0.00,WeatherDisplay:10.37,2013-06-05 09:07:00,
2013-06-05 05:12:00,61.0,49.5,29.94,SSE,150,0.0,0.0,66,0.00,BKN,,0.00,WeatherDisplay:10.37,2013-06-05 09:12:00,
2013-06-05 05:17:00,61.0,49.5,29.94,SSE,150,0.0,0.0,66,0.00,BKN,,0.00,WeatherDisplay:10.37,2013-06-05 09:17:00,
2013-06-05 05:22:00,60.8,49.4,29.93,SSE,150,0.0,0.0,66,0.00,OVC,,0.00,WeatherDisplay:10.37,2013-06-05 09:22:00,
2013-06-05 05:27:00,60.6,49.2,29.94,SSE,150,0.0,0.0,66,0.00,OVC,,0.00,WeatherDisplay:10.37,2013-06-05 09:27:00,
2013-06-05 05:32:00,60.6,49.2,29.94,SSE,150,0.0,0.0,66,0.00,OVC,,0.00,WeatherDisplay:10.37,2013-06-05 09:32:00,
2013-06-05 05:37:00,60.4,49.4,29.94,SSE,150,0.0,0.0,67,0.00,OVC,,0.00,WeatherDisplay:10.37,2013-06-05 09:37:00,
2013-06-05 05:42:00,60.4,49.8,29.94,SSE,150,0.0,0.0,68,0.00,OVC,,0.00,WeatherDisplay:10.37,2013-06-05 09:42:00,
2013-06-05 05:47:00,60.4,49.8,29.94,SSE,150,0.0,0.0,68,0.00,OVC,,0.00,WeatherDisplay:10.37,2013-06-05 09:47:00,
2013-06-05 05:52:00,60.4,49.8,29.94,SSE,150,0.0,0.0,68,0.00,OVC,,0.00,WeatherDisplay:10.37,2013-06-05 09:52:00,
2013-06-05 05:57:00,60.4,49.8,29.94,SSE,150,0.0,0.0,68,0.00,OVC,,0.00,WeatherDisplay:10.37,2013-06-05 09:57:00,
2013-06-05 06:02:00,60.3,50.0,29.94,SSE,150,0.0,0.0,69,0.00,OVC,,0.00,WeatherDisplay:10.37,2013-06-05 10:02:00,
2013-06-05 06:07:00,60.1,49.9,29.94,SSE,150,0.0,0.0,69,0.00,OVC,,0.00,WeatherDisplay:10.37,2013-06-05 10:07:00,
2013-06-05 06:12:00,60.1,50.3,29.95,SSE,150,0.0,0.0,70,0.00,OVC,,0.00,WeatherDisplay:10.37,2013-06-05 10:12:00,
2013-06-05 06:17:00,60.4,50.6,29.95,SSE,150,0.0,0.0,70,0.00,OVC,,0.00,WeatherDisplay:10.37,2013-06-05 10:17:00,
2013-06-05 06:22:00,60.3,50.4,29.94,SSE,150,0.0,0.0,70,0.00,BKN,,0.00,WeatherDisplay:10.37,2013-06-05 10:22:00,
2013-06-05 06:27:00,60.3,50.4,29.94,SSE,150,0.0,0.0,70,0.00,BKN,,0.00,WeatherDisplay:10.37,2013-06-05 10:27:00,
2013-06-05 06:32:00,60.1,50.3,29.94,SSE,150,0.0,0.0,70,0.00,BKN,,0.00,WeatherDisplay:10.37,2013-06-05 10:32:00,
2013-06-05 06:37:00,60.4,50.6,29.94,SSE,150,0.0,0.0,70,0.00,BKN,,0.00,WeatherDisplay:10.37,2013-06-05 10:37:00,
2013-06-05 06:42:00,60.6,50.8,29.94,SSE,150,0.0,0.0,70,0.00,SCT,,0.00,WeatherDisplay:10.37,2013-06-05 10:42:00,
2013-06-05 06:47:00,61.0,50.7,29.94,SSE,150,0.0,0.0,69,0.00,SCT,,0.00,WeatherDisplay:10.37,2013-06-05 10:47:00,
2013-06-05 06:52:00,61.3,50.7,29.95,SSE,150,0.0,0.0,68,0.00,SCT,,0.00,WeatherDisplay:10.37,2013-06-05 10:52:00,
2013-06-05 06:57:00,61.5,50.5,29.95,SSE,150,0.0,0.0,67,0.00,SCT,,0.00,WeatherDisplay:10.37,2013-06-05 10:57:00,
2013-06-05 07:02:00,61.7,50.6,29.95,SSE,150,0.0,0.0,67,0.00,SCT,,0.00,WeatherDisplay:10.37,2013-06-05 11:02:00,
2013-06-05 07:07:00,61.9,51.2,29.95,SSE,150,0.0,0.0,68,0.00,SCT,,0.00,WeatherDisplay:10.37,2013-06-05 11:07:00,
2013-06-05 07:12:00,62.1,51.4,29.96,SSE,150,0.0,0.0,68,0.00,SCT,,0.00,WeatherDisplay:10.37,2013-06-05 11:12:00,
2013-06-05 07:17:00,62.2,51.5,29.96,SSE,150,0.0,0.0,68,0.00,SCT,,0.00,WeatherDisplay:10.37,2013-06-05 11:17:00,
2013-06-05 07:22:00,62.2,51.5,29.96,SSE,150,0.0,0.0,68,0.00,SCT,,0.00,WeatherDisplay:10.37,2013-06-05 11:22:00,
2013-06-05 07:27:00,61.9,50.8,29.96,SSE,150,0.0,0.0,67,0.00,SCT,,0.00,WeatherDisplay:10.37,2013-06-05 11:27:00,
2013-06-05 07:32:00,61.7,51.0,29.96,SSE,150,0.0,0.0,68,0.00,SCT,,0.00,WeatherDisplay:10.37,2013-06-05 11:32:00,
2013-06-05 07:37:00,61.9,51.2,29.96,SSE,150,0.0,0.0,68,0.00,SCT,,0.00,WeatherDisplay:10.37,2013-06-05 11:37:00,
2013-06-05 07:42:00,61.9,51.2,29.96,SSE,150,0.0,0.0,68,0.00,SCT,,0.00,WeatherDisplay:10.37,2013-06-05 11:42:00,
2013-06-05 07:47:00,62.1,51.4,29.97,SSE,150,0.0,0.0,68,0.00,SCT,,0.00,WeatherDisplay:10.37,2013-06-05 11:47:00,
2013-06-05 07:52:00,62.2,51.1,29.97,SSE,150,0.0,0.0,67,0.00,SCT,,0.00,WeatherDisplay:10.37,2013-06-05 11:52:00,
2013-06-05 07:57:00,62.4,51.3,29.96,SSE,150,0.0,0.0,67,0.00,SCT,,0.00,WeatherDisplay:10.37,2013-06-05 11:57:00,
2013-06-05 08:02:00,62.6,51.1,29.96,SSE,150,0.0,0.0,66,0.00,SCT,,0.00,WeatherDisplay:10.37,2013-06-05 12:02:00,
2013-06-05 08:07:00,62.8,51.2,29.96,SSE,150,0.0,0.0,66,0.00,SCT,,0.00,WeatherDisplay:10.37,2013-06-05 12:07:00,
2013-06-05 08:12:00,63.1,50.8,29.96,SSE,150,0.0,0.0,64,0.00,SCT,,0.00,WeatherDisplay:10.37,2013-06-05 12:12:00,
2013-06-05 08:17:00,63.3,50.9,29.96,SSE,150,0.0,0.0,64,0.00,SCT,,0.00,WeatherDisplay:10.37,2013-06-05 12:17:00,
2013-06-05 08:22:00,63.5,50.7,29.96,SSE,150,0.0,0.0,63,0.00,SCT,,0.00,WeatherDisplay:10.37,2013-06-05 12:22:00,
2013-06-05 08:27:00,64.2,50.9,29.96,SSE,150,0.0,0.0,62,0.00,SCT,,0.00,WeatherDisplay:10.37,2013-06-05 12:27:00,
2013-06-05 08:32:00,64.4,50.2,29.96,SSE,150,0.0,0.0,60,0.00,SCT,,0.00,WeatherDisplay:10.37,2013-06-05 12:32:00,
2013-06-05 08:37:00,64.6,49.9,29.96,SSE,150,0.0,0.0,59,0.00,SCT,,0.00,WeatherDisplay:10.37,2013-06-05 12:37:00,
2013-06-05 08:42:00,64.8,50.1,29.96,SSE,150,0.0,0.0,59,0.00,SCT,,0.00,WeatherDisplay:10.37,2013-06-05 12:42:00,
2013-06-05 08:47:00,64.9,50.3,29.96,SSE,150,0.0,0.0,59,0.00,SCT,,0.00,WeatherDisplay:10.37,2013-06-05 12:47:00,
2013-06-05 08:52:00,65.5,49.8,29.96,SSE,150,0.0,0.0,57,0.00,CLR,,0.00,WeatherDisplay:10.37,2013-06-05 12:52:00,
2013-06-05 08:57:00,66.2,50.0,29.95,SSE,150,0.0,0.0,56,0.00,CLR,,0.00,WeatherDisplay:10.37,2013-06-05 12:57:00,
2013-06-05 09:02:00,67.1,50.4,29.95,SSE,150,0.0,0.0,55,0.00,CLR,,0.00,WeatherDisplay:10.37,2013-06-05 13:02:00,
2013-06-05 09:07:00,67.5,50.7,29.95,SSE,150,0.0,0.0,55,0.00,CLR,,0.00,WeatherDisplay:10.37,2013-06-05 13:07:00,
2013-06-05 09:12:00,68.2,50.9,29.95,South,170,3.5,3.5,54,0.00,CLR,,0.00,WeatherDisplay:10.37,2013-06-05 13:12:00,
2013-06-05 09:17:00,69.1,51.7,29.95,South,170,3.5,3.5,54,0.00,CLR,,0.00,WeatherDisplay:10.37,2013-06-05 13:17:00,
2013-06-05 09:22:00,69.6,51.2,29.95,South,170,3.5,3.5,52,0.00,CLR,,0.00,WeatherDisplay:10.37,2013-06-05 13:22:00,
2013-06-05 09:27:00,70.0,51.5,29.95,South,170,3.5,3.5,52,0.00,CLR,,0.00,WeatherDisplay:10.37,2013-06-05 13:27:00,
2013-06-05 09:32:00,70.2,50.6,29.95,South,170,3.5,3.5,50,0.00,CLR,,0.00,WeatherDisplay:10.37,2013-06-05 13:32:00,
2013-06-05 09:37:00,70.0,50.5,29.95,South,170,3.5,3.5,50,0.00,CLR,,0.00,WeatherDisplay:10.37,2013-06-05 13:37:00,
2013-06-05 09:42:00,69.8,50.3,29.95,South,170,3.5,3.5,50,0.00,CLR,,0.00,WeatherDisplay:10.37,2013-06-05 13:42:00,
2013-06-05 09:47:00,69.6,50.7,29.95,South,170,3.5,3.5,51,0.00,CLR,,0.00,WeatherDisplay:10.37,2013-06-05 13:47:00,
2013-06-05 09:52:00,69.6,50.2,29.95,South,170,3.5,0.0,50,0.00,CLR,,0.00,WeatherDisplay:10.37,2013-06-05 13:52:00,
2013-06-05 09:57:00,70.2,50.1,29.94,South,170,0.0,0.0,49,0.00,CLR,,0.00,WeatherDisplay:10.37,2013-06-05 13:57:00,
2013-06-05 10:02:00,70.5,49.9,29.94,SSE,160,4.6,4.6,48,0.00,SCT,,0.00,WeatherDisplay:10.37,2013-06-05 14:02:00,
2013-06-05 10:07:00,71.4,50.7,29.94,SSE,160,4.6,4.6,48,0.00,SCT,,0.00,WeatherDisplay:10.37,2013-06-05 14:07:00,
2013-06-05 10:12:00,71.4,50.1,29.94,SSE,160,4.6,4.6,47,0.00,SCT,,0.00,WeatherDisplay:10.37,2013-06-05 14:12:00,
2013-06-05 10:17:00,71.2,50.5,29.94,SSE,160,4.6,4.6,48,0.00,SCT,,0.00,WeatherDisplay:10.37,2013-06-05 14:17:00,
2013-06-05 10:22:00,71.2,50.5,29.94,SSE,160,4.6,4.6,48,0.00,SCT,,0.00,WeatherDisplay:10.37,2013-06-05 14:22:00,
2013-06-05 10:27:00,71.2,50.5,29.94,SSE,160,4.6,4.6,48,0.00,SCT,,0.00,WeatherDisplay:10.37,2013-06-05 14:27:00,
2013-06-05 10:32:00,70.7,50.6,29.93,SSW,210,6.9,6.9,49,0.00,BKN,,0.00,WeatherDisplay:10.37,2013-06-05 14:32:00,
2013-06-05 10:37:00,70.9,50.8,29.94,SSW,210,6.9,6.9,49,0.00,BKN,,0.00,WeatherDisplay:10.37,2013-06-05 14:37:00,
2013-06-05 10:42:00,71.2,51.1,29.94,South,180,6.9,6.9,49,0.00,SCT,,0.00,WeatherDisplay:10.37,2013-06-05 14:42:00,
2013-06-05 10:47:00,70.7,51.1,29.94,South,180,5.8,5.8,50,0.00,SCT,,0.00,WeatherDisplay:10.37,2013-06-05 14:47:00,
2013-06-05 10:52:00,71.1,51.5,29.94,South,180,5.8,5.8,50,0.00,SCT,,0.00,WeatherDisplay:10.37,2013-06-05 14:52:00,
2013-06-05 10:57:00,71.4,51.8,29.93,South,180,5.8,5.8,50,0.00,SCT,,0.00,WeatherDisplay:10.37,2013-06-05 14:57:00,
2013-06-05 11:02:00,72.0,52.3,29.93,South,180,5.8,5.8,50,0.00,SCT,,0.00,WeatherDisplay:10.37,2013-06-05 15:02:00,
2013-06-05 11:07:00,72.1,51.9,29.94,South,180,5.8,5.8,49,0.00,SCT,,0.00,WeatherDisplay:10.37,2013-06-05 15:07:00,
2013-06-05 11:12:00,72.1,51.9,29.93,SSW,210,6.9,6.9,49,0.00,SCT,,0.00,WeatherDisplay:10.37,2013-06-05 15:12:00,
2013-06-05 11:17:00,72.5,52.8,29.93,SSW,210,6.9,6.9,50,0.00,SCT,,0.00,WeatherDisplay:10.37,2013-06-05 15:17:00,
2013-06-05 11:22:00,72.5,52.8,29.93,SSW,210,6.9,6.9,50,0.00,SCT,,0.00,WeatherDisplay:10.37,2013-06-05 15:22:00,
2013-06-05 11:27:00,72.3,52.6,29.93,SSW,210,6.9,6.9,50,0.00,SCT,,0.00,WeatherDisplay:10.37,2013-06-05 15:27:00,
2013-06-05 11:32:00,72.9,53.1,29.93,South,190,6.9,6.9,50,0.00,BKN,,0.00,WeatherDisplay:10.37,2013-06-05 15:32:00,
2013-06-05 11:37:00,73.0,53.3,29.93,South,190,4.6,4.6,50,0.00,BKN,,0.00,WeatherDisplay:10.37,2013-06-05 15:37:00,
2013-06-05 11:42:00,72.7,53.0,29.93,South,190,4.6,4.6,50,0.00,BKN,,0.00,WeatherDisplay:10.37,2013-06-05 15:42:00,
2013-06-05 11:47:00,72.7,52.4,29.93,South,190,4.6,4.6,49,0.00,BKN,,0.00,WeatherDisplay:10.37,2013-06-05 15:47:00,
2013-06-05 11:52:00,72.5,52.8,29.93,South,180,6.9,6.9,50,0.00,OVC,,0.00,WeatherDisplay:10.37,2013-06-05 15:52:00,
2013-06-05 11:57:00,73.2,52.9,29.93,South,180,6.9,6.9,49,0.00,OVC,,0.00,WeatherDisplay:10.37,2013-06-05 15:57:00,
2013-06-05 12:02:00,73.2,52.3,29.93,South,180,6.9,6.9,48,0.00,OVC,,0.00,WeatherDisplay:10.37,2013-06-05 16:02:00,
2013-06-05 12:07:00,73.0,52.7,29.92,South,180,6.9,6.9,49,0.00,OVC,,0.00,WeatherDisplay:10.37,2013-06-05 16:07:00,
2013-06-05 12:12:00,73.6,53.2,29.92,SSW,210,6.9,6.9,49,0.00,BKN,,0.00,WeatherDisplay:10.37,2013-06-05 16:12:00,
2013-06-05 12:17:00,73.8,53.4,29.92,SSW,210,4.6,4.6,49,0.00,BKN,,0.00,WeatherDisplay:10.37,2013-06-05 16:17:00,
2013-06-05 12:22:00,74.1,53.7,29.92,SSW,210,4.6,4.6,49,0.00,BKN,,0.00,WeatherDisplay:10.37,2013-06-05 16:22:00,
2013-06-05 12:27:00,74.7,54.2,29.91,SSW,210,4.6,4.6,49,0.00,BKN,,0.00,WeatherDisplay:10.37,2013-06-05 16:27:00,
2013-06-05 12:32:00,74.7,54.2,29.91,South,170,5.8,5.8,49,0.00,SCT,,0.00,WeatherDisplay:10.37,2013-06-05 16:32:00,
2013-06-05 12:37:00,74.5,54.1,29.91,South,170,5.8,5.8,49,0.00,SCT,,0.00,WeatherDisplay:10.37,2013-06-05 16:37:00,
2013-06-05 12:42:00,74.7,54.2,29.91,South,170,5.8,5.8,49,0.00,SCT,,0.00,WeatherDisplay:10.37,2013-06-05 16:42:00,
2013-06-05 12:47:00,74.8,54.4,29.90,South,170,5.8,5.8,49,0.00,SCT,,0.00,WeatherDisplay:10.37,2013-06-05 16:47:00,
2013-06-05 12:52:00,75.0,54.0,29.90,South,180,6.9,6.9,48,0.00,SCT,,0.00,WeatherDisplay:10.37,2013-06-05 16:52:00,
2013-06-05 12:57:00,74.5,53.5,29.90,South,180,6.9,6.9,48,0.00,SCT,,0.00,WeatherDisplay:10.37,2013-06-05 16:57:00,
2013-06-05 13:02:00,74.5,54.1,29.90,South,170,8.1,8.1,49,0.00,SCT,,0.00,WeatherDisplay:10.37,2013-06-05 17:02:00,
2013-06-05 13:07:00,74.5,54.1,29.90,South,170,8.1,8.1,49,0.00,SCT,,0.00,WeatherDisplay:10.37,2013-06-05 17:07:00,
2013-06-05 13:12:00,74.3,53.9,29.90,South,170,8.1,8.1,49,0.00,SCT,,0.00,WeatherDisplay:10.37,2013-06-05 17:12:00,
2013-06-05 13:17:00,74.3,54.5,29.90,South,170,8.1,8.1,50,0.00,SCT,,0.00,WeatherDisplay:10.37,2013-06-05 17:17:00,
2013-06-05 13:22:00,74.1,54.3,29.90,South,170,8.1,8.1,50,0.00,SCT,,0.00,WeatherDisplay:10.37,2013-06-05 17:22:00,
2013-06-05 13:27:00,74.1,54.8,29.90,South,170,8.1,8.1,51,0.00,SCT,,0.00,WeatherDisplay:10.37,2013-06-05 17:27:00,
2013-06-05 13:32:00,75.0,55.1,29.89,South,170,18.4,18.4,50,0.00,SCT,,0.00,WeatherDisplay:10.37,2013-06-05 17:32:00,
2013-06-05 13:37:00,75.7,55.8,29.89,South,170,18.4,18.4,50,0.00,SCT,,0.00,WeatherDisplay:10.37,2013-06-05 17:37:00,
2013-06-05 13:42:00,75.9,55.9,29.89,SSE,150,18.4,18.4,50,0.00,BKN,,0.00,WeatherDisplay:10.37,2013-06-05 17:42:00,
2013-06-05 13:47:00,75.6,55.6,29.89,SSE,150,8.1,8.1,50,0.00,BKN,,0.00,WeatherDisplay:10.37,2013-06-05 17:47:00,
2013-06-05 13:52:00,75.6,55.6,29.89,SSE,150,8.1,8.1,50,0.00,BKN,,0.00,WeatherDisplay:10.37,2013-06-05 17:52:00,
2013-06-05 13:57:00,74.5,54.6,29.89,SSE,150,8.1,8.1,50,0.00,BKN,,0.00,WeatherDisplay:10.37,2013-06-05 17:57:00,
2013-06-05 14:02:00,74.1,54.8,29.88,South,170,10.4,10.4,51,0.00,BKN,,0.00,WeatherDisplay:10.37,2013-06-05 18:02:00,
2013-06-05 14:07:00,74.1,55.4,29.89,South,170,10.4,10.4,52,0.00,BKN,,0.00,WeatherDisplay:10.37,2013-06-05 18:07:00,
2013-06-05 14:12:00,75.0,56.2,29.88,South,170,10.4,10.4,52,0.00,BKN,,0.00,WeatherDisplay:10.37,2013-06-05 18:12:00,
2013-06-05 14:17:00,75.0,55.7,29.88,South,170,10.4,10.4,51,0.00,BKN,,0.00,WeatherDisplay:10.37,2013-06-05 18:17:00,
2013-06-05 14:22:00,75.0,56.2,29.88,SSE,160,10.4,10.4,52,0.00,OVC,,0.00,WeatherDisplay:10.37,2013-06-05 18:22:00,
2013-06-05 14:27:00,75.0,56.7,29.88,SSE,160,8.1,8.1,53,0.00,OVC,,0.00,WeatherDisplay:10.37,2013-06-05 18:27:00,
2013-06-05 14:32:00,75.0,56.7,29.88,SSE,160,8.1,8.1,53,0.00,OVC,,0.00,WeatherDisplay:10.37,2013-06-05 18:32:00,
2013-06-05 14:37:00,75.4,56.5,29.88,SSE,160,8.1,8.1,52,0.00,OVC,,0.00,WeatherDisplay:10.37,2013-06-05 18:37:00,
2013-06-05 14:42:00,75.7,57.4,29.88,SE,140,8.1,8.1,53,0.00,OVC,,0.00,WeatherDisplay:10.37,2013-06-05 18:42:00,
2013-06-05 14:47:00,75.4,56.5,29.88,SE,140,5.8,5.8,52,0.00,OVC,,0.00,WeatherDisplay:10.37,2013-06-05 18:47:00,
2013-06-05 14:52:00,74.8,56.6,29.88,SE,140,5.8,5.8,53,0.00,OVC,,0.00,WeatherDisplay:10.37,2013-06-05 18:52:00,
2013-06-05 14:57:00,74.5,56.7,29.88,SE,140,5.8,5.8,54,0.00,OVC,,0.00,WeatherDisplay:10.37,2013-06-05 18:57:00,
2013-06-05 15:02:00,75.0,57.2,29.88,SE,140,6.9,6.9,54,0.00,BKN,,0.00,WeatherDisplay:10.37,2013-06-05 19:02:00,
2013-06-05 15:07:00,74.5,56.7,29.87,SE,140,6.9,6.9,54,0.00,BKN,,0.00,WeatherDisplay:10.37,2013-06-05 19:07:00,
2013-06-05 15:12:00,75.0,57.8,29.88,SE,140,6.9,6.9,55,0.00,BKN,,0.00,WeatherDisplay:10.37,2013-06-05 19:12:00,
2013-06-05 15:17:00,74.8,57.1,29.88,SE,140,6.9,6.9,54,0.00,BKN,,0.00,WeatherDisplay:10.37,2013-06-05 19:17:00,
2013-06-05 15:22:00,75.0,57.8,29.88,SSE,150,10.4,10.4,55,0.00,BKN,,0.00,WeatherDisplay:10.37,2013-06-05 19:22:00,
2013-06-05 15:27:00,75.4,58.1,29.87,SSE,150,10.4,10.4,55,0.00,BKN,,0.00,WeatherDisplay:10.37,2013-06-05 19:27:00,
2013-06-05 15:32:00,75.4,58.1,29.87,SSE,150,10.4,10.4,55,0.00,BKN,,0.00,WeatherDisplay:10.37,2013-06-05 19:32:00,
2013-06-05 15:37:00,75.9,59.1,29.87,SSE,150,10.4,10.4,56,0.00,BKN,,0.00,WeatherDisplay:10.37,2013-06-05 19:37:00,
2013-06-05 15:42:00,75.0,57.8,29.87,South,170,10.4,10.4,55,0.00,BKN,,0.00,WeatherDisplay:10.37,2013-06-05 19:42:00,
2013-06-05 15:47:00,74.8,58.1,29.87,South,170,10.4,10.4,56,0.00,BKN,,0.00,WeatherDisplay:10.37,2013-06-05 19:47:00,
2013-06-05 15:52:00,74.5,57.3,29.87,South,170,10.4,10.4,55,0.00,BKN,,0.00,WeatherDisplay:10.37,2013-06-05 19:52:00,
2013-06-05 15:57:00,74.5,57.8,29.87,South,170,10.4,10.4,56,0.00,BKN,,0.00,WeatherDisplay:10.37,2013-06-05 19:57:00,
2013-06-05 16:02:00,74.1,57.9,29.87,SSE,160,18.4,18.4,57,0.00,BKN,,0.00,WeatherDisplay:10.37,2013-06-05 20:02:00,
2013-06-05 16:07:00,74.7,58.9,29.87,SSE,160,18.4,18.4,58,0.00,BKN,,0.00,WeatherDisplay:10.37,2013-06-05 20:07:00,
2013-06-05 16:12:00,74.5,58.2,29.87,SSE,160,18.4,18.4,57,0.00,BKN,,0.00,WeatherDisplay:10.37,2013-06-05 20:12:00,
2013-06-05 16:17:00,74.3,58.6,29.87,SSE,160,18.4,18.4,58,0.00,BKN,,0.00,WeatherDisplay:10.37,2013-06-05 20:17:00,
2013-06-05 16:22:00,74.1,58.9,29.87,SSE,160,18.4,18.4,59,0.00,BKN,,0.00,WeatherDisplay:10.37,2013-06-05 20:22:00,
2013-06-05 16:27:00,74.8,59.5,29.87,SSE,160,18.4,18.4,59,0.00,BKN,,0.00,WeatherDisplay:10.37,2013-06-05 20:27:00,
2013-06-05 16:32:00,74.5,58.7,29.87,South,170,20.7,20.7,58,0.00,BKN,,0.00,WeatherDisplay:10.37,2013-06-05 20:32:00,
2013-06-05 16:37:00,74.1,58.9,29.87,South,170,20.7,20.7,59,0.00,BKN,,0.00,WeatherDisplay:10.37,2013-06-05 20:37:00,
2013-06-05 16:42:00,73.9,58.7,29.87,South,170,20.7,20.7,59,0.00,BKN,,0.00,WeatherDisplay:10.37,2013-06-05 20:42:00,
2013-06-05 16:47:00,73.9,58.7,29.87,South,170,20.7,20.7,59,0.00,BKN,,0.00,WeatherDisplay:10.37,2013-06-05 20:47:00,
2013-06-05 16:52:00,73.9,58.7,29.87,SSE,150,20.7,20.7,59,0.00,OVC,,0.00,WeatherDisplay:10.37,2013-06-05 20:52:00,
2013-06-05 16:57:00,73.9,59.2,29.87,SSE,150,18.4,18.4,60,0.00,OVC,,0.00,WeatherDisplay:10.37,2013-06-05 20:57:00,
2013-06-05 17:02:00,73.9,59.2,29.87,South,180,18.4,18.4,60,0.00,OVC,,0.00,WeatherDisplay:10.37,2013-06-05 21:02:00,
2013-06-05 17:07:00,73.6,58.8,29.87,South,180,9.2,9.2,60,0.00,OVC,,0.00,WeatherDisplay:10.37,2013-06-05 21:07:00,
2013-06-05 17:12:00,73.2,59.0,29.86,South,180,9.2,9.2,61,0.00,OVC,,0.00,WeatherDisplay:10.37,2013-06-05 21:12:00,
2013-06-05 17:17:00,73.6,59.3,29.86,South,180,9.2,9.2,61,0.00,OVC,,0.00,WeatherDisplay:10.37,2013-06-05 21:17:00,
2013-06-05 17:23:00,73.8,59.5,29.86,SSE,150,9.2,9.2,61,0.00,BKN,,0.00,WeatherDisplay:10.37,2013-06-05 21:23:00,
2013-06-05 17:28:00,73.6,59.3,29.86,SSE,150,9.2,9.2,61,0.00,BKN,,0.00,WeatherDisplay:10.37,2013-06-05 21:28:00,
2013-06-05 17:33:00,73.2,59.0,29.86,SSE,150,9.2,9.2,61,0.00,BKN,,0.00,WeatherDisplay:10.37,2013-06-05 21:33:00,
2013-06-05 17:38:00,73.0,58.8,29.85,SSE,150,9.2,9.2,61,0.00,BKN,,0.00,WeatherDisplay:10.37,2013-06-05 21:38:00,
2013-06-05 17:43:00,72.9,59.1,29.85,SSE,160,9.2,9.2,62,0.00,BKN,,0.00,WeatherDisplay:10.37,2013-06-05 21:43:00,
2013-06-05 17:48:00,72.9,59.1,29.85,SSE,160,9.2,9.2,62,0.00,BKN,,0.00,WeatherDisplay:10.37,2013-06-05 21:48:00,
2013-06-05 17:53:00,73.0,59.2,29.85,SSE,160,9.2,9.2,62,0.00,BKN,,0.00,WeatherDisplay:10.37,2013-06-05 21:53:00,
2013-06-05 17:58:00,73.0,59.2,29.85,SSE,160,9.2,9.2,62,0.00,BKN,,0.00,WeatherDisplay:10.37,2013-06-05 21:58:00,
2013-06-05 18:03:00,73.2,59.4,29.85,SSE,160,9.2,9.2,62,0.00,BKN,,0.00,WeatherDisplay:10.37,2013-06-05 22:03:00,
2013-06-05 18:08:00,73.2,59.4,29.85,SSE,160,9.2,9.2,62,0.00,BKN,,0.00,WeatherDisplay:10.37,2013-06-05 22:08:00,
2013-06-05 18:13:00,72.9,59.1,29.85,South,170,9.2,9.2,62,0.00,BKN,,0.00,WeatherDisplay:10.37,2013-06-05 22:13:00,
2013-06-05 18:18:00,72.7,59.4,29.84,South,170,8.1,8.1,63,0.00,BKN,,0.00,WeatherDisplay:10.37,2013-06-05 22:18:00,
2013-06-05 18:23:00,72.5,59.2,29.84,South,170,9.2,9.2,63,0.00,SCT,,0.00,WeatherDisplay:10.37,2013-06-05 22:23:00,
2013-06-05 18:28:00,72.5,59.2,29.84,South,170,9.2,9.2,63,0.00,SCT,,0.00,WeatherDisplay:10.37,2013-06-05 22:28:00,
2013-06-05 18:33:00,72.7,59.4,29.84,South,170,9.2,9.2,63,0.00,SCT,,0.00,WeatherDisplay:10.37,2013-06-05 22:33:00,
2013-06-05 18:38:00,72.5,59.2,29.84,South,170,9.2,9.2,63,0.00,SCT,,0.00,WeatherDisplay:10.37,2013-06-05 22:38:00,
2013-06-05 18:43:00,72.3,59.0,29.85,South,170,9.2,9.2,63,0.00,BKN,,0.00,WeatherDisplay:10.37,2013-06-05 22:43:00,
2013-06-05 18:48:00,72.0,58.7,29.85,South,170,6.9,6.9,63,0.00,BKN,,0.00,WeatherDisplay:10.37,2013-06-05 22:48:00,
2013-06-05 18:53:00,71.6,58.8,29.84,South,170,6.9,6.9,64,0.00,BKN,,0.00,WeatherDisplay:10.37,2013-06-05 22:53:00,
2013-06-05 18:58:00,71.4,58.6,29.84,South,170,6.9,6.9,64,0.00,BKN,,0.00,WeatherDisplay:10.37,2013-06-05 22:58:00,
2013-06-05 19:03:00,71.4,58.6,29.84,SSE,160,8.1,8.1,64,0.00,OVC,,0.00,WeatherDisplay:10.37,2013-06-05 23:03:00,
2013-06-05 19:08:00,71.4,58.6,29.85,SSE,160,8.1,8.1,64,0.00,OVC,,0.00,WeatherDisplay:10.37,2013-06-05 23:08:00,
2013-06-05 19:13:00,71.2,58.9,29.85,SSE,160,8.1,8.1,65,0.00,OVC,,0.00,WeatherDisplay:10.37,2013-06-05 23:13:00,
2013-06-05 19:18:00,71.2,58.9,29.85,SSE,160,8.1,8.1,65,0.00,OVC,,0.00,WeatherDisplay:10.37,2013-06-05 23:18:00,
2013-06-05 19:23:00,71.4,59.0,29.85,South,170,8.1,8.1,65,0.00,OVC,,0.00,WeatherDisplay:10.37,2013-06-05 23:23:00,
2013-06-05 19:28:00,71.4,59.0,29.85,South,170,6.9,6.9,65,0.00,OVC,,0.00,WeatherDisplay:10.37,2013-06-05 23:28:00,
2013-06-05 19:33:00,71.4,59.0,29.85,South,170,6.9,6.9,65,0.00,OVC,,0.00,WeatherDisplay:10.37,2013-06-05 23:33:00,
2013-06-05 19:38:00,71.4,59.0,29.84,South,170,6.9,6.9,65,0.00,OVC,,0.00,WeatherDisplay:10.37,2013-06-05 23:38:00,
2013-06-05 19:43:00,71.2,58.9,29.84,SSE,150,6.9,6.9,65,0.00,OVC,,0.00,WeatherDisplay:10.37,2013-06-05 23:43:00,
2013-06-05 19:48:00,71.2,58.9,29.84,SSE,150,6.9,6.9,65,0.00,OVC,,0.00,WeatherDisplay:10.37,2013-06-05 23:48:00,
2013-06-05 19:53:00,70.9,59.0,29.84,SSE,150,6.9,6.9,66,0.00,OVC,,0.00,WeatherDisplay:10.37,2013-06-05 23:53:00,
2013-06-05 19:58:00,70.7,58.8,29.84,SSE,150,6.9,6.9,66,0.00,OVC,,0.00,WeatherDisplay:10.37,2013-06-05 23:58:00,
2013-06-05 20:03:00,70.5,58.6,29.84,SSE,150,6.9,6.9,66,0.00,OVC,,0.00,WeatherDisplay:10.37,2013-06-06 00:03:00,
2013-06-05 20:08:00,70.5,58.6,29.85,SSE,150,6.9,6.9,66,0.00,OVC,,0.00,WeatherDisplay:10.37,2013-06-06 00:08:00,
2013-06-05 20:13:00,70.3,58.4,29.85,SSE,160,9.2,9.2,66,0.00,BKN,,0.00,WeatherDisplay:10.37,2013-06-06 00:13:00,
2013-06-05 20:18:00,70.3,58.9,29.85,SSE,160,9.2,9.2,67,0.00,BKN,,0.00,WeatherDisplay:10.37,2013-06-06 00:18:00,
2013-06-05 20:23:00,70.3,58.9,29.85,SSE,160,9.2,9.2,67,0.00,BKN,,0.00,WeatherDisplay:10.37,2013-06-06 00:23:00,
2013-06-05 20:28:00,70.3,58.9,29.85,SSE,160,9.2,9.2,67,0.00,BKN,,0.00,WeatherDisplay:10.37,2013-06-06 00:28:00,
2013-06-05 20:33:00,70.3,58.4,29.85,SSE,160,9.2,9.2,66,0.00,SCT,,0.00,WeatherDisplay:10.37,2013-06-06 00:33:00,
2013-06-05 20:38:00,70.3,58.4,29.85,SSE,160,6.9,6.9,66,0.00,SCT,,0.00,WeatherDisplay:10.37,2013-06-06 00:38:00,
2013-06-05 20:43:00,70.3,58.4,29.85,South,170,6.9,6.9,66,0.00,CLR,,0.00,WeatherDisplay:10.37,2013-06-06 00:43:00,
2013-06-05 20:48:00,70.2,58.3,29.85,South,170,4.6,4.6,66,0.00,CLR,,0.00,WeatherDisplay:10.37,2013-06-06 00:48:00,
2013-06-05 20:53:00,70.2,58.3,29.85,South,170,4.6,4.6,66,0.00,CLR,,0.00,WeatherDisplay:10.37,2013-06-06 00:53:00,
2013-06-05 20:58:00,70.2,58.3,29.85,South,170,4.6,4.6,66,0.00,CLR,,0.00,WeatherDisplay:10.37,2013-06-06 00:58:00,
2013-06-05 21:03:00,70.0,58.1,29.85,South,170,4.6,4.6,66,0.00,CLR,,0.00,WeatherDisplay:10.37,2013-06-06 01:03:00,
2013-06-05 21:08:00,70.0,58.1,29.85,South,170,3.5,3.5,66,0.00,CLR,,0.00,WeatherDisplay:10.37,2013-06-06 01:08:00,
2013-06-05 21:13:00,70.0,58.1,29.85,South,170,3.5,3.5,66,0.00,CLR,,0.00,WeatherDisplay:10.37,2013-06-06 01:13:00,
2013-06-05 21:18:00,70.0,58.5,29.85,South,170,3.5,3.5,67,0.00,CLR,,0.00,WeatherDisplay:10.37,2013-06-06 01:18:00,
2013-06-05 21:23:00,70.0,58.5,29.85,SSW,200,3.5,3.5,67,0.00,BKN,,0.00,WeatherDisplay:10.37,2013-06-06 01:23:00,
2013-06-05 21:28:00,69.8,58.3,29.85,SSW,200,3.5,3.5,67,0.00,BKN,,0.00,WeatherDisplay:10.37,2013-06-06 01:28:00,
2013-06-05 21:33:00,69.8,58.3,29.85,SSW,200,3.5,3.5,67,0.00,BKN,,0.00,WeatherDisplay:10.37,2013-06-06 01:33:00,
2013-06-05 21:38:00,69.8,58.3,29.85,SSW,200,3.5,3.5,67,0.00,BKN,,0.00,WeatherDisplay:10.37,2013-06-06 01:38:00,
2013-06-05 21:43:00,69.8,57.9,29.85,South,180,3.5,3.5,66,0.00,OVC,,0.00,WeatherDisplay:10.37,2013-06-06 01:43:00,
2013-06-05 21:48:00,70.0,58.1,29.85,South,180,3.5,3.5,66,0.00,OVC,,0.00,WeatherDisplay:10.37,2013-06-06 01:48:00,
2013-06-05 21:53:00,70.0,58.1,29.85,South,180,3.5,3.5,66,0.00,OVC,,0.00,WeatherDisplay:10.37,2013-06-06 01:53:00,
2013-06-05 21:58:00,69.8,57.9,29.85,South,180,3.5,3.5,66,0.00,OVC,,0.00,WeatherDisplay:10.37,2013-06-06 01:58:00,
2013-06-05 22:03:00,69.6,57.8,29.84,SSW,200,4.6,4.6,66,0.00,OVC,,0.00,WeatherDisplay:10.37,2013-06-06 02:03:00,
2013-06-05 22:08:00,69.6,57.8,29.85,SSW,200,4.6,4.6,66,0.00,OVC,,0.00,WeatherDisplay:10.37,2013-06-06 02:08:00,
2013-06-05 22:13:00,69.6,57.8,29.85,SSW,200,4.6,4.6,66,0.00,OVC,,0.00,WeatherDisplay:10.37,2013-06-06 02:13:00,
2013-06-05 22:18:00,69.6,57.8,29.85,SSW,200,4.6,4.6,66,0.00,OVC,,0.00,WeatherDisplay:10.37,2013-06-06 02:18:00,
2013-06-05 22:23:00,69.4,57.6,29.85,South,190,4.6,4.6,66,0.00,BKN,,0.00,WeatherDisplay:10.37,2013-06-06 02:23:00,
2013-06-05 22:28:00,69.4,57.2,29.85,South,190,3.5,3.5,65,0.00,BKN,,0.00,WeatherDisplay:10.37,2013-06-06 02:28:00,
2013-06-05 22:33:00,69.3,57.0,29.85,South,190,3.5,3.5,65,0.00,BKN,,0.00,WeatherDisplay:10.37,2013-06-06 02:33:00,
2013-06-05 22:38:00,69.3,57.0,29.86,South,190,3.5,3.5,65,0.00,BKN,,0.00,WeatherDisplay:10.37,2013-06-06 02:38:00,
2013-06-05 22:43:00,69.1,56.8,29.86,South,170,3.5,3.5,65,0.00,OVC,,0.00,WeatherDisplay:10.37,2013-06-06 02:43:00,
2013-06-05 22:48:00,69.1,56.8,29.85,South,170,3.5,3.5,65,0.00,OVC,,0.00,WeatherDisplay:10.37,2013-06-06 02:48:00,
2013-06-05 22:53:00,69.1,56.8,29.85,South,170,3.5,3.5,65,0.00,OVC,,0.00,WeatherDisplay:10.37,2013-06-06 02:53:00,
2013-06-05 22:58:00,68.9,56.6,29.85,South,170,3.5,3.5,65,0.00,OVC,,0.00,WeatherDisplay:10.37,2013-06-06 02:58:00,
2013-06-05 23:03:00,68.9,56.6,29.85,SSE,160,3.5,3.5,65,0.00,SCT,,0.00,WeatherDisplay:10.37,2013-06-06 03:03:00,
2013-06-05 23:08:00,68.7,56.5,29.85,SSE,160,3.5,3.5,65,0.00,SCT,,0.00,WeatherDisplay:10.37,2013-06-06 03:08:00,
2013-06-05 23:13:00,68.7,56.5,29.85,SSE,160,3.5,3.5,65,0.00,SCT,,0.00,WeatherDisplay:10.37,2013-06-06 03:13:00,
2013-06-05 23:18:00,68.5,56.3,29.85,SSE,160,3.5,3.5,65,0.00,SCT,,0.00,WeatherDisplay:10.37,2013-06-06 03:18:00,
2013-06-05 23:23:00,68.5,56.3,29.85,South,170,3.5,3.5,65,0.00,CLR,,0.00,WeatherDisplay:10.37,2013-06-06 03:23:00,
2013-06-05 23:28:00,68.5,56.3,29.86,South,170,3.5,3.5,65,0.00,CLR,,0.00,WeatherDisplay:10.37,2013-06-06 03:28:00,
2013-06-05 23:33:00,68.5,56.3,29.85,South,170,3.5,3.5,65,0.00,CLR,,0.00,WeatherDisplay:10.37,2013-06-06 03:33:00,
2013-06-05 23:38:00,68.4,56.1,29.85,South,170,3.5,3.5,65,0.00,CLR,,0.00,WeatherDisplay:10.37,2013-06-06 03:38:00,
2013-06-05 23:43:00,68.2,56.4,29.85,South,170,3.5,3.5,66,0.00,CLR,,0.00,WeatherDisplay:10.37,2013-06-06 03:43:00,
2013-06-05 23:48:00,68.2,56.4,29.85,South,170,3.5,3.5,66,0.00,CLR,,0.00,WeatherDisplay:10.37,2013-06-06 03:48:00,
2013-06-05 23:53:00,68.0,56.2,29.85,South,170,4.6,4.6,66,0.00,CLR,,0.00,WeatherDisplay:10.37,2013-06-06 03:53:00,
2013-06-05 23:58:00,67.8,56.0,29.85,South,170,4.6,4.6,66,0.00,CLR,,0.00,WeatherDisplay:10.37,2013-06-06 03:58:00,